Year,Month,Day,Hour,Minute,Value (Times are PST for windgust in km/hr)
2013,11,26,00,44,1.60
2013,11,26,00,45,3.20
2013,11,26,04,00,1.60
2013,11,26,04,17,4.80
2013,11,26,04,18,4.80
2013,11,26,04,45,1.60
2013,11,26,04,49,3.20
2013,11,26,04,50,1.60
2013,11,26,04,51,1.60
2013,11,26,04,52,1.60
2013,11,26,05,00,1.60
2013,11,26,05,03,1.60
2013,11,26,05,04,3.20
2013,11,26,05,05,1.60
2013,11,26,05,06,3.20
2013,11,26,05,07,1.60
2013,11,26,05,08,3.20
2013,11,26,05,09,1.60
2013,11,26,05,19,3.20
2013,11,26,05,24,4.80
2013,11,26,05,25,1.60
2013,11,26,05,27,1.60
2013,11,26,05,32,4.80
2013,11,26,05,33,4.80
2013,11,26,05,34,4.80
2013,11,26,05,35,1.60
2013,11,26,05,42,4.80
2013,11,26,05,43,3.20
2013,11,26,05,44,4.80
2013,11,26,05,45,4.80
2013,11,26,05,46,1.60
2013,11,26,05,47,4.80
2013,11,26,05,48,4.80
2013,11,26,05,49,3.20
2013,11,26,05,50,3.20
2013,11,26,05,51,3.20
2013,11,26,05,52,3.20
2013,11,26,05,56,1.60
2013,11,26,05,57,3.20
2013,11,26,05,58,1.60
2013,11,26,05,59,6.40
2013,11,26,06,00,3.20
2013,11,26,06,01,4.80
2013,11,26,06,02,4.80
2013,11,26,06,04,3.20
2013,11,26,06,05,6.40
2013,11,26,06,06,1.60
2013,11,26,06,07,4.80
2013,11,26,06,08,6.40
2013,11,26,06,09,6.40
2013,11,26,06,10,3.20
2013,11,26,06,11,4.80
2013,11,26,06,12,1.60
2013,11,26,06,15,1.60
2013,11,26,06,23,3.20
2013,11,26,06,26,3.20
2013,11,26,06,27,1.60
2013,11,26,06,30,1.60
2013,11,26,06,32,1.60
2013,11,26,06,46,1.60
2013,11,26,06,49,4.80
2013,11,26,06,50,4.80
2013,11,26,06,51,1.60
2013,11,26,06,58,3.20
2013,11,26,06,59,1.60
2013,11,26,07,04,1.60
2013,11,26,07,06,3.20
2013,11,26,07,07,6.40
2013,11,26,07,08,3.20
2013,11,26,07,09,1.60
2013,11,26,07,10,3.20
2013,11,26,07,11,3.20
2013,11,26,07,12,4.80
2013,11,26,07,14,1.60
2013,11,26,07,16,1.60
2013,11,26,07,27,1.60
2013,11,26,07,29,3.20
2013,11,26,07,30,3.20
2013,11,26,07,31,3.20
2013,11,26,07,32,1.60
2013,11,26,07,33,4.80
2013,11,26,07,34,3.20
2013,11,26,07,35,3.20
2013,11,26,07,36,4.80
2013,11,26,07,37,1.60
2013,11,26,07,39,3.20
2013,11,26,07,42,1.60
2013,11,26,07,44,3.20
2013,11,26,07,45,3.20
2013,11,26,07,47,3.20
2013,11,26,07,48,1.60
2013,11,26,07,50,1.60
2013,11,26,07,52,3.20
2013,11,26,07,56,1.60
2013,11,26,07,57,3.20
2013,11,26,08,00,6.40
2013,11,26,08,02,1.60
2013,11,26,08,08,4.80
2013,11,26,08,09,3.20
2013,11,26,08,10,1.60
2013,11,26,08,11,4.80
2013,11,26,08,12,4.80
2013,11,26,08,13,4.80
2013,11,26,08,14,4.80
2013,11,26,08,15,8.10
2013,11,26,08,16,8.10
2013,11,26,08,17,6.40
2013,11,26,08,18,6.40
2013,11,26,08,19,8.10
2013,11,26,08,20,6.40
2013,11,26,08,21,6.40
2013,11,26,08,22,6.40
2013,11,26,08,23,9.60
2013,11,26,08,24,9.60
2013,11,26,08,25,8.10
2013,11,26,08,26,9.60
2013,11,26,08,27,6.40
2013,11,26,08,28,8.10
2013,11,26,08,29,8.10
2013,11,26,08,30,6.40
2013,11,26,08,31,4.80
2013,11,26,08,32,6.40
2013,11,26,08,33,8.10
2013,11,26,08,34,6.40
2013,11,26,08,35,6.40
2013,11,26,08,36,4.80
2013,11,26,08,37,8.10
2013,11,26,08,38,4.80
2013,11,26,08,39,4.80
2013,11,26,08,40,1.60
2013,11,26,08,41,4.80
2013,11,26,08,42,6.40
2013,11,26,08,43,6.40
2013,11,26,08,44,6.40
2013,11,26,08,45,6.40
2013,11,26,08,46,6.40
2013,11,26,08,47,4.80
2013,11,26,08,48,3.20
2013,11,26,08,49,1.60
2013,11,26,08,50,9.60
2013,11,26,08,51,6.40
2013,11,26,08,52,8.10
2013,11,26,08,53,6.40
2013,11,26,08,54,4.80
2013,11,26,08,55,4.80
2013,11,26,08,56,1.60
2013,11,26,08,57,4.80
2013,11,26,08,58,6.40
2013,11,26,08,59,6.40
2013,11,26,09,00,9.60
2013,11,26,09,01,8.10
2013,11,26,09,02,8.10
2013,11,26,09,03,14.50
2013,11,26,09,04,6.40
2013,11,26,09,05,14.50
2013,11,26,09,06,9.60
2013,11,26,09,07,8.10
2013,11,26,09,08,8.10
2013,11,26,09,09,9.60
2013,11,26,09,10,9.60
2013,11,26,09,11,11.30
2013,11,26,09,12,9.60
2013,11,26,09,13,6.40
2013,11,26,09,14,8.10
2013,11,26,09,15,9.60
2013,11,26,09,16,8.10
2013,11,26,09,17,4.80
2013,11,26,09,18,8.10
2013,11,26,09,19,6.40
2013,11,26,09,20,3.20
2013,11,26,09,21,8.10
2013,11,26,09,22,3.20
2013,11,26,09,23,6.40
2013,11,26,09,24,8.10
2013,11,26,09,25,8.10
2013,11,26,09,26,6.40
2013,11,26,09,27,6.40
2013,11,26,09,28,3.20
2013,11,26,09,29,4.80
2013,11,26,09,30,4.80
2013,11,26,09,31,6.40
2013,11,26,09,32,3.20
2013,11,26,09,33,11.30
2013,11,26,09,34,6.40
2013,11,26,09,35,4.80
2013,11,26,09,36,8.10
2013,11,26,09,37,8.10
2013,11,26,09,38,6.40
2013,11,26,09,39,9.60
2013,11,26,09,40,4.80
2013,11,26,09,41,9.60
2013,11,26,09,42,9.60
2013,11,26,09,43,9.60
2013,11,26,09,44,11.30
2013,11,26,09,45,11.30
2013,11,26,09,46,14.50
2013,11,26,09,47,8.10
2013,11,26,09,48,6.40
2013,11,26,09,49,8.10
2013,11,26,09,50,17.70
2013,11,26,09,51,8.10
2013,11,26,09,52,8.10
2013,11,26,09,53,14.50
2013,11,26,09,54,17.70
2013,11,26,09,55,19.30
2013,11,26,09,56,16.10
2013,11,26,09,57,9.60
2013,11,26,09,58,16.10
2013,11,26,09,59,14.50
2013,11,26,10,00,8.10
2013,11,26,10,01,11.30
2013,11,26,10,02,14.50
2013,11,26,10,03,11.30
2013,11,26,10,04,9.60
2013,11,26,10,05,9.60
2013,11,26,10,06,11.30
2013,11,26,10,07,8.10
2013,11,26,10,08,11.30
2013,11,26,10,09,11.30
2013,11,26,10,10,9.60
2013,11,26,10,11,9.60
2013,11,26,10,12,8.10
2013,11,26,10,13,11.30
2013,11,26,10,14,9.60
2013,11,26,10,15,16.10
2013,11,26,10,16,14.50
2013,11,26,10,17,9.60
2013,11,26,10,18,8.10
2013,11,26,10,19,1.60
2013,11,26,10,20,6.40
2013,11,26,10,21,11.30
2013,11,26,10,22,14.50
2013,11,26,10,23,12.90
2013,11,26,10,24,9.60
2013,11,26,10,25,12.90
2013,11,26,10,26,16.10
2013,11,26,10,27,6.40
2013,11,26,10,28,8.10
2013,11,26,10,29,9.60
2013,11,26,10,30,11.30
2013,11,26,10,31,11.30
2013,11,26,10,32,9.60
2013,11,26,10,33,11.30
2013,11,26,10,34,9.60
2013,11,26,10,35,11.30
2013,11,26,10,36,9.60
2013,11,26,10,37,16.10
2013,11,26,10,38,16.10
2013,11,26,10,39,14.50
2013,11,26,10,40,11.30
2013,11,26,10,41,11.30
2013,11,26,10,42,17.70
2013,11,26,10,43,16.10
2013,11,26,10,44,11.30
2013,11,26,10,45,8.10
2013,11,26,10,46,6.40
2013,11,26,10,47,16.10
2013,11,26,10,48,14.50
2013,11,26,10,49,16.10
2013,11,26,10,50,14.50
2013,11,26,10,51,16.10
2013,11,26,10,52,12.90
2013,11,26,10,53,12.90
2013,11,26,10,54,11.30
2013,11,26,10,55,11.30
2013,11,26,10,56,14.50
2013,11,26,10,57,17.70
2013,11,26,10,58,17.70
2013,11,26,10,59,19.30
2013,11,26,11,00,17.70
2013,11,26,11,01,16.10
2013,11,26,11,02,20.90
2013,11,26,11,03,22.50
2013,11,26,11,04,22.50
2013,11,26,11,05,19.30
2013,11,26,11,06,17.70
2013,11,26,11,07,17.70
2013,11,26,11,08,14.50
2013,11,26,11,09,22.50
2013,11,26,11,10,16.10
2013,11,26,11,11,11.30
2013,11,26,11,12,16.10
2013,11,26,11,13,20.90
2013,11,26,11,14,9.60
2013,11,26,11,15,20.90
2013,11,26,11,16,24.20
2013,11,26,11,17,22.50
2013,11,26,11,18,24.20
2013,11,26,11,19,22.50
2013,11,26,11,20,22.50
2013,11,26,11,21,20.90
2013,11,26,11,22,16.10
2013,11,26,11,23,20.90
2013,11,26,11,24,11.30
2013,11,26,11,25,19.30
2013,11,26,11,26,19.30
2013,11,26,11,27,17.70
2013,11,26,11,28,14.50
2013,11,26,11,29,16.10
2013,11,26,11,30,9.60
2013,11,26,11,31,9.60
2013,11,26,11,32,17.70
2013,11,26,11,33,17.70
2013,11,26,11,34,19.30
2013,11,26,11,35,14.50
2013,11,26,11,36,17.70
2013,11,26,11,37,16.10
2013,11,26,11,38,16.10
2013,11,26,11,39,8.10
2013,11,26,11,40,14.50
2013,11,26,11,41,17.70
2013,11,26,11,42,17.70
2013,11,26,11,43,16.10
2013,11,26,11,44,19.30
2013,11,26,11,45,17.70
2013,11,26,11,46,20.90
2013,11,26,11,47,11.30
2013,11,26,11,48,14.50
2013,11,26,11,49,17.70
2013,11,26,11,50,17.70
2013,11,26,11,51,11.30
2013,11,26,11,52,17.70
2013,11,26,11,53,16.10
2013,11,26,11,54,16.10
2013,11,26,11,55,9.60
2013,11,26,11,56,11.30
2013,11,26,11,57,14.50
2013,11,26,11,58,14.50
2013,11,26,11,59,19.30
2013,11,26,12,00,14.50
2013,11,26,12,01,14.50
2013,11,26,12,02,11.30
2013,11,26,12,03,12.90
2013,11,26,12,04,16.10
2013,11,26,12,05,14.50
2013,11,26,12,06,16.10
2013,11,26,12,07,16.10
2013,11,26,12,08,14.50
2013,11,26,12,09,9.60
2013,11,26,12,10,12.90
2013,11,26,12,11,16.10
2013,11,26,12,12,11.30
2013,11,26,12,13,14.50
2013,11,26,12,14,11.30
2013,11,26,12,15,12.90
2013,11,26,12,16,14.50
2013,11,26,12,17,17.70
2013,11,26,12,18,17.70
2013,11,26,12,19,16.10
2013,11,26,12,20,24.20
2013,11,26,12,21,20.90
2013,11,26,12,22,20.90
2013,11,26,12,23,19.30
2013,11,26,12,24,17.70
2013,11,26,12,25,16.10
2013,11,26,12,26,20.90
2013,11,26,12,27,12.90
2013,11,26,12,28,16.10
2013,11,26,12,29,16.10
2013,11,26,12,30,16.10
2013,11,26,12,31,14.50
2013,11,26,12,32,14.50
2013,11,26,12,33,20.90
2013,11,26,12,34,24.20
2013,11,26,12,35,16.10
2013,11,26,12,36,22.50
2013,11,26,12,37,16.10
2013,11,26,12,38,16.10
2013,11,26,12,39,16.10
2013,11,26,12,40,19.30
2013,11,26,12,41,16.10
2013,11,26,12,42,24.20
2013,11,26,12,43,20.90
2013,11,26,12,44,20.90
2013,11,26,12,45,20.90
2013,11,26,12,46,25.70
2013,11,26,12,47,20.90
2013,11,26,12,48,17.70
2013,11,26,12,49,19.30
2013,11,26,12,50,19.30
2013,11,26,12,51,19.30
2013,11,26,12,52,17.70
2013,11,26,12,53,14.50
2013,11,26,12,54,16.10
2013,11,26,12,55,16.10
2013,11,26,12,56,11.30
2013,11,26,12,57,8.10
2013,11,26,12,58,14.50
2013,11,26,12,59,6.40
2013,11,26,13,00,6.40
2013,11,26,13,01,14.50
2013,11,26,13,02,11.30
2013,11,26,13,03,9.60
2013,11,26,13,04,8.10
2013,11,26,13,05,8.10
2013,11,26,13,06,4.80
2013,11,26,13,07,8.10
2013,11,26,13,08,9.60
2013,11,26,13,09,11.30
2013,11,26,13,10,9.60
2013,11,26,13,11,14.50
2013,11,26,13,12,11.30
2013,11,26,13,13,12.90
2013,11,26,13,14,9.60
2013,11,26,13,15,9.60
2013,11,26,13,16,11.30
2013,11,26,13,17,16.10
2013,11,26,13,18,17.70
2013,11,26,13,19,14.50
2013,11,26,13,20,11.30
2013,11,26,13,21,8.10
2013,11,26,13,22,6.40
2013,11,26,13,23,4.80
2013,11,26,13,24,8.10
2013,11,26,13,25,8.10
2013,11,26,13,26,8.10
2013,11,26,13,27,16.10
2013,11,26,13,28,14.50
2013,11,26,13,29,11.30
2013,11,26,13,30,16.10
2013,11,26,13,31,20.90
2013,11,26,13,32,16.10
2013,11,26,13,33,14.50
2013,11,26,13,34,12.90
2013,11,26,13,35,14.50
2013,11,26,13,36,12.90
2013,11,26,13,37,11.30
2013,11,26,13,38,9.60
2013,11,26,13,39,12.90
2013,11,26,13,40,12.90
2013,11,26,13,41,16.10
2013,11,26,13,42,11.30
2013,11,26,13,43,11.30
2013,11,26,13,44,12.90
2013,11,26,13,45,8.10
2013,11,26,13,46,9.60
2013,11,26,13,47,12.90
2013,11,26,13,48,11.30
2013,11,26,13,49,16.10
2013,11,26,13,50,9.60
2013,11,26,13,51,16.10
2013,11,26,13,52,9.60
2013,11,26,13,53,11.30
2013,11,26,13,54,9.60
2013,11,26,13,55,9.60
2013,11,26,13,56,8.10
2013,11,26,13,57,9.60
2013,11,26,13,58,8.10
2013,11,26,13,59,16.10
2013,11,26,14,00,8.10
2013,11,26,14,01,14.50
2013,11,26,14,02,8.10
2013,11,26,14,03,11.30
2013,11,26,14,04,9.60
2013,11,26,14,05,9.60
2013,11,26,14,06,8.10
2013,11,26,14,07,14.50
2013,11,26,14,08,8.10
2013,11,26,14,09,8.10
2013,11,26,14,10,9.60
2013,11,26,14,11,14.50
2013,11,26,14,12,12.90
2013,11,26,14,13,14.50
2013,11,26,14,14,8.10
2013,11,26,14,15,9.60
2013,11,26,14,16,8.10
2013,11,26,14,17,9.60
2013,11,26,14,18,4.80
2013,11,26,14,19,9.60
2013,11,26,14,20,6.40
2013,11,26,14,21,11.30
2013,11,26,14,22,14.50
2013,11,26,14,23,6.40
2013,11,26,14,24,8.10
2013,11,26,14,25,9.60
2013,11,26,14,26,6.40
2013,11,26,14,27,9.60
2013,11,26,14,28,8.10
2013,11,26,14,29,16.10
2013,11,26,14,30,8.10
2013,11,26,14,31,6.40
2013,11,26,14,32,16.10
2013,11,26,14,33,9.60
2013,11,26,14,34,14.50
2013,11,26,14,35,11.30
2013,11,26,14,36,4.80
2013,11,26,14,37,8.10
2013,11,26,14,38,9.60
2013,11,26,14,39,8.10
2013,11,26,14,40,17.70
2013,11,26,14,41,8.10
2013,11,26,14,42,9.60
2013,11,26,14,43,8.10
2013,11,26,14,44,14.50
2013,11,26,14,45,11.30
2013,11,26,14,46,14.50
2013,11,26,14,47,14.50
2013,11,26,14,48,8.10
2013,11,26,14,49,11.30
2013,11,26,14,50,16.10
2013,11,26,14,51,9.60
2013,11,26,14,52,11.30
2013,11,26,14,53,16.10
2013,11,26,14,54,12.90
2013,11,26,14,55,8.10
2013,11,26,14,56,14.50
2013,11,26,14,57,11.30
2013,11,26,14,58,9.60
2013,11,26,14,59,11.30
2013,11,26,15,00,11.30
2013,11,26,15,01,8.10
2013,11,26,15,02,11.30
2013,11,26,15,03,12.90
2013,11,26,15,04,17.70
2013,11,26,15,05,16.10
2013,11,26,15,06,19.30
2013,11,26,15,07,17.70
2013,11,26,15,08,11.30
2013,11,26,15,09,14.50
2013,11,26,15,10,16.10
2013,11,26,15,11,16.10
2013,11,26,15,12,11.30
2013,11,26,15,13,9.60
2013,11,26,15,14,9.60
2013,11,26,15,15,8.10
2013,11,26,15,16,9.60
2013,11,26,15,17,11.30
2013,11,26,15,18,8.10
2013,11,26,15,19,9.60
2013,11,26,15,20,9.60
2013,11,26,15,21,6.40
2013,11,26,15,22,9.60
2013,11,26,15,23,9.60
2013,11,26,15,24,8.10
2013,11,26,15,25,14.50
2013,11,26,15,26,9.60
2013,11,26,15,27,14.50
2013,11,26,15,28,14.50
2013,11,26,15,29,14.50
2013,11,26,15,30,16.10
2013,11,26,15,31,8.10
2013,11,26,15,32,8.10
2013,11,26,15,33,8.10
2013,11,26,15,34,9.60
2013,11,26,15,35,11.30
2013,11,26,15,36,11.30
2013,11,26,15,37,8.10
2013,11,26,15,38,9.60
2013,11,26,15,39,9.60
2013,11,26,15,40,11.30
2013,11,26,15,41,11.30
2013,11,26,15,42,11.30
2013,11,26,15,43,14.50
2013,11,26,15,44,9.60
2013,11,26,15,45,9.60
2013,11,26,15,46,14.50
2013,11,26,15,47,14.50
2013,11,26,15,48,16.10
2013,11,26,15,49,17.70
2013,11,26,15,50,16.10
2013,11,26,15,51,17.70
2013,11,26,15,52,9.60
2013,11,26,15,53,12.90
2013,11,26,15,54,20.90
2013,11,26,15,55,14.50
2013,11,26,15,56,9.60
2013,11,26,15,57,9.60
2013,11,26,15,58,6.40
2013,11,26,15,59,8.10
2013,11,26,16,00,9.60
2013,11,26,16,01,11.30
2013,11,26,16,02,14.50
2013,11,26,16,03,11.30
2013,11,26,16,04,11.30
2013,11,26,16,05,14.50
2013,11,26,16,06,17.70
2013,11,26,16,07,17.70
2013,11,26,16,08,12.90
2013,11,26,16,09,16.10
2013,11,26,16,10,16.10
2013,11,26,16,11,16.10
2013,11,26,16,12,11.30
2013,11,26,16,13,16.10
2013,11,26,16,14,11.30
2013,11,26,16,15,6.40
2013,11,26,16,16,8.10
2013,11,26,16,17,6.40
2013,11,26,16,18,12.90
2013,11,26,16,19,8.10
2013,11,26,16,20,6.40
2013,11,26,16,21,6.40
2013,11,26,16,22,8.10
2013,11,26,16,23,8.10
2013,11,26,16,24,8.10
2013,11,26,16,25,9.60
2013,11,26,16,26,9.60
2013,11,26,16,27,17.70
2013,11,26,16,28,9.60
2013,11,26,16,29,14.50
2013,11,26,16,30,9.60
2013,11,26,16,31,12.90
2013,11,26,16,32,17.70
2013,11,26,16,33,11.30
2013,11,26,16,34,11.30
2013,11,26,16,35,12.90
2013,11,26,16,36,14.50
2013,11,26,16,37,11.30
2013,11,26,16,38,8.10
2013,11,26,16,39,14.50
2013,11,26,16,40,8.10
2013,11,26,16,41,14.50
2013,11,26,16,42,12.90
2013,11,26,16,43,16.10
2013,11,26,16,44,16.10
2013,11,26,16,45,14.50
2013,11,26,16,46,16.10
2013,11,26,16,47,9.60
2013,11,26,16,48,11.30
2013,11,26,16,49,16.10
2013,11,26,16,50,11.30
2013,11,26,16,51,9.60
2013,11,26,16,52,6.40
2013,11,26,16,53,8.10
2013,11,26,16,54,9.60
2013,11,26,16,55,11.30
2013,11,26,16,56,11.30
2013,11,26,16,57,12.90
2013,11,26,16,58,16.10
2013,11,26,16,59,16.10
2013,11,26,17,00,14.50
2013,11,26,17,01,11.30
2013,11,26,17,02,9.60
2013,11,26,17,03,16.10
2013,11,26,17,04,11.30
2013,11,26,17,05,11.30
2013,11,26,17,06,14.50
2013,11,26,17,07,6.40
2013,11,26,17,08,11.30
2013,11,26,17,09,8.10
2013,11,26,17,10,9.60
2013,11,26,17,11,11.30
2013,11,26,17,12,16.10
2013,11,26,17,13,9.60
2013,11,26,17,14,8.10
2013,11,26,17,15,11.30
2013,11,26,17,16,11.30
2013,11,26,17,17,12.90
2013,11,26,17,18,14.50
2013,11,26,17,19,11.30
2013,11,26,17,20,14.50
2013,11,26,17,21,11.30
2013,11,26,17,22,11.30
2013,11,26,17,23,16.10
2013,11,26,17,24,11.30
2013,11,26,17,25,11.30
2013,11,26,17,26,12.90
2013,11,26,17,27,12.90
2013,11,26,17,28,11.30
2013,11,26,17,29,11.30
2013,11,26,17,30,11.30
2013,11,26,17,31,17.70
2013,11,26,17,32,11.30
2013,11,26,17,33,11.30
2013,11,26,17,34,11.30
2013,11,26,17,35,11.30
2013,11,26,17,36,12.90
2013,11,26,17,37,11.30
2013,11,26,17,38,11.30
2013,11,26,17,39,16.10
2013,11,26,17,40,9.60
2013,11,26,17,41,11.30
2013,11,26,17,42,9.60
2013,11,26,17,43,9.60
2013,11,26,17,44,6.40
2013,11,26,17,45,6.40
2013,11,26,17,46,8.10
2013,11,26,17,47,11.30
2013,11,26,17,48,11.30
2013,11,26,17,49,8.10
2013,11,26,17,50,8.10
2013,11,26,17,51,9.60
2013,11,26,17,52,11.30
2013,11,26,17,53,8.10
2013,11,26,17,54,8.10
2013,11,26,17,55,14.50
2013,11,26,17,56,11.30
2013,11,26,17,57,6.40
2013,11,26,17,58,9.60
2013,11,26,17,59,11.30
2013,11,26,18,00,11.30
2013,11,26,18,01,9.60
2013,11,26,18,02,11.30
2013,11,26,18,03,8.10
2013,11,26,18,04,11.30
2013,11,26,18,05,4.80
2013,11,26,18,06,8.10
2013,11,26,18,07,9.60
2013,11,26,18,08,8.10
2013,11,26,18,09,11.30
2013,11,26,18,10,4.80
2013,11,26,18,11,6.40
2013,11,26,18,12,8.10
2013,11,26,18,13,4.80
2013,11,26,18,14,1.60
2013,11,26,18,15,3.20
2013,11,26,18,16,3.20
2013,11,26,18,18,3.20
2013,11,26,18,19,6.40
2013,11,26,18,20,6.40
2013,11,26,18,21,8.10
2013,11,26,18,22,9.60
2013,11,26,18,23,1.60
2013,11,26,18,24,3.20
2013,11,26,18,25,3.20
2013,11,26,18,26,1.60
2013,11,26,18,27,1.60
2013,11,26,18,28,8.10
2013,11,26,18,29,8.10
2013,11,26,18,30,8.10
2013,11,26,18,31,6.40
2013,11,26,18,32,8.10
2013,11,26,18,33,1.60
2013,11,26,18,34,6.40
2013,11,26,18,35,3.20
2013,11,26,18,36,6.40
2013,11,26,18,37,6.40
2013,11,26,18,38,6.40
2013,11,26,18,39,11.30
2013,11,26,18,40,8.10
2013,11,26,18,41,8.10
2013,11,26,18,42,8.10
2013,11,26,18,43,12.90
2013,11,26,18,44,4.80
2013,11,26,18,45,3.20
2013,11,26,18,46,4.80
2013,11,26,18,47,4.80
2013,11,26,18,49,3.20
2013,11,26,18,50,1.60
2013,11,26,18,51,8.10
2013,11,26,18,52,3.20
2013,11,26,18,53,6.40
2013,11,26,18,54,6.40
2013,11,26,18,55,3.20
2013,11,26,18,56,6.40
2013,11,26,18,57,4.80
2013,11,26,18,58,4.80
2013,11,26,19,00,3.20
2013,11,26,19,01,3.20
2013,11,26,19,03,6.40
2013,11,26,19,04,3.20
2013,11,26,19,05,4.80
2013,11,26,19,07,3.20
2013,11,26,19,08,3.20
2013,11,26,19,09,1.60
2013,11,26,19,10,3.20
2013,11,26,19,11,6.40
2013,11,26,19,12,4.80
2013,11,26,19,13,6.40
2013,11,26,19,14,3.20
2013,11,26,19,15,4.80
2013,11,26,19,16,4.80
2013,11,26,19,17,4.80
2013,11,26,19,18,3.20
2013,11,26,19,19,3.20
2013,11,26,19,20,3.20
2013,11,26,19,21,4.80
2013,11,26,19,22,6.40
2013,11,26,19,23,4.80
2013,11,26,19,24,6.40
2013,11,26,19,25,6.40
2013,11,26,19,26,11.30
2013,11,26,19,27,4.80
2013,11,26,19,28,1.60
2013,11,26,19,29,6.40
2013,11,26,19,30,4.80
2013,11,26,19,31,6.40
2013,11,26,19,32,4.80
2013,11,26,19,33,6.40
2013,11,26,19,34,6.40
2013,11,26,19,35,3.20
2013,11,26,19,36,4.80
2013,11,26,19,37,8.10
2013,11,26,19,38,3.20
2013,11,26,19,39,1.60
2013,11,26,19,40,9.60
2013,11,26,19,41,11.30
2013,11,26,19,42,4.80
2013,11,26,19,43,3.20
2013,11,26,19,44,11.30
2013,11,26,19,45,9.60
2013,11,26,19,46,3.20
2013,11,26,19,47,3.20
2013,11,26,19,48,1.60
2013,11,26,19,50,4.80
2013,11,26,19,51,3.20
2013,11,26,19,52,6.40
2013,11,26,19,53,3.20
2013,11,26,19,54,1.60
2013,11,26,19,55,4.80
2013,11,26,19,57,1.60
2013,11,26,19,58,3.20
2013,11,26,19,59,3.20
2013,11,26,20,03,1.60
2013,11,26,20,04,1.60
2013,11,26,20,07,1.60
2013,11,26,20,08,3.20
2013,11,26,20,09,1.60
2013,11,26,20,11,1.60
2013,11,26,20,12,4.80
2013,11,26,20,13,1.60
2013,11,26,20,18,1.60
2013,11,26,20,19,1.60
2013,11,26,20,22,1.60
2013,11,26,20,23,3.20
2013,11,26,20,27,1.60
2013,11,26,20,34,1.60
2013,11,26,20,35,4.80
2013,11,26,20,36,1.60
2013,11,26,20,37,6.40
2013,11,26,20,38,8.10
2013,11,26,20,39,9.60
2013,11,26,20,40,11.30
2013,11,26,20,41,6.40
2013,11,26,20,42,6.40
2013,11,26,20,43,6.40
2013,11,26,20,44,6.40
2013,11,26,20,45,4.80
2013,11,26,20,46,1.60
2013,11,26,20,47,1.60
2013,11,26,20,48,4.80
2013,11,26,20,49,6.40
2013,11,26,20,50,6.40
2013,11,26,20,51,6.40
2013,11,26,20,52,4.80
2013,11,26,20,53,8.10
2013,11,26,20,54,4.80
2013,11,26,20,55,3.20
2013,11,26,20,56,3.20
2013,11,26,20,57,1.60
2013,11,26,20,58,1.60
2013,11,26,20,59,6.40
2013,11,26,21,00,9.60
2013,11,26,21,01,6.40
2013,11,26,21,02,4.80
2013,11,26,21,03,1.60
2013,11,26,21,05,1.60
2013,11,26,21,06,3.20
2013,11,26,21,07,1.60
2013,11,26,21,08,1.60
2013,11,26,21,09,4.80
2013,11,26,21,10,3.20
2013,11,26,21,11,1.60
2013,11,26,21,18,1.60
2013,11,26,21,19,3.20
2013,11,26,21,20,1.60
2013,11,26,21,21,3.20
2013,11,26,21,22,3.20
2013,11,26,21,23,1.60
2013,11,26,21,25,4.80
2013,11,26,21,26,1.60
2013,11,26,21,30,1.60
2013,11,26,21,37,3.20
2013,11,26,21,38,1.60
2013,11,26,21,41,3.20
2013,11,26,21,42,1.60
2013,11,26,21,43,1.60
2013,11,26,21,44,3.20
2013,11,26,21,45,3.20
2013,11,26,21,47,1.60
2013,11,26,21,50,1.60
2013,11,26,21,55,1.60
2013,11,26,21,57,1.60
2013,11,26,22,08,3.20
2013,11,26,22,11,3.20
2013,11,26,22,12,3.20
2013,11,26,22,13,1.60
2013,11,26,22,16,1.60
2013,11,26,22,17,3.20
2013,11,26,22,18,3.20
2013,11,26,22,19,4.80
2013,11,26,22,20,3.20
2013,11,26,22,21,3.20
2013,11,26,22,22,3.20
2013,11,26,22,23,8.10
2013,11,26,22,24,6.40
2013,11,26,22,25,6.40
2013,11,26,22,26,6.40
2013,11,26,22,27,3.20
2013,11,26,22,28,4.80
2013,11,26,22,32,3.20
2013,11,26,22,33,3.20
2013,11,26,22,34,3.20
2013,11,26,22,35,8.10
2013,11,26,22,36,4.80
2013,11,26,22,37,3.20
2013,11,26,22,38,4.80
2013,11,26,22,40,3.20
2013,11,26,22,41,3.20
2013,11,26,22,42,4.80
2013,11,26,22,43,4.80
2013,11,26,22,44,4.80
2013,11,26,22,46,3.20
2013,11,26,22,47,4.80
2013,11,26,22,48,3.20
2013,11,26,22,49,3.20
2013,11,26,22,50,4.80
2013,11,26,22,51,1.60
2013,11,26,22,52,3.20
2013,11,26,22,54,1.60
2013,11,26,22,56,1.60
2013,11,26,22,57,3.20
2013,11,26,22,58,3.20
2013,11,26,23,01,1.60
2013,11,26,23,06,1.60
2013,11,26,23,15,1.60
2013,11,26,23,16,1.60
2013,11,26,23,17,3.20
2013,11,26,23,18,3.20
2013,11,26,23,19,6.40
2013,11,26,23,20,4.80
2013,11,26,23,21,6.40
2013,11,26,23,22,6.40
2013,11,26,23,23,6.40
2013,11,26,23,24,4.80
2013,11,26,23,25,1.60
2013,11,26,23,26,3.20
2013,11,26,23,28,3.20
2013,11,26,23,29,1.60
2013,11,26,23,30,6.40
2013,11,26,23,31,3.20
2013,11,26,23,32,6.40
2013,11,26,23,33,4.80
2013,11,26,23,34,3.20
2013,11,26,23,35,1.60
2013,11,26,23,36,3.20
2013,11,26,23,37,1.60
2013,11,26,23,38,4.80
2013,11,26,23,39,8.10
2013,11,26,23,40,3.20
2013,11,26,23,41,3.20
2013,11,26,23,42,3.20
2013,11,26,23,43,8.10
2013,11,26,23,44,8.10
2013,11,26,23,45,11.30
2013,11,26,23,46,11.30
2013,11,26,23,47,9.60
2013,11,26,23,48,9.60
2013,11,26,23,49,6.40
2013,11,26,23,50,6.40
2013,11,26,23,51,6.40
2013,11,26,23,52,3.20
2013,11,26,23,53,8.10
2013,11,26,23,54,6.40
2013,11,26,23,55,4.80
2013,11,26,23,56,1.60
2013,11,26,23,57,3.20
2013,11,26,23,58,1.60
2013,11,26,23,59,6.40
